Year,Month,Day,Hour,Minute,Value (Times are PST for temperature in C)
2016,03,29,00,00,8.70
2016,03,29,00,01,8.70
2016,03,29,00,02,8.80
2016,03,29,00,03,8.80
2016,03,29,00,04,8.70
2016,03,29,00,05,8.80
2016,03,29,00,06,8.80
2016,03,29,00,07,8.80
2016,03,29,00,08,8.80
2016,03,29,00,09,8.80
2016,03,29,00,10,8.80
2016,03,29,00,11,8.80
2016,03,29,00,12,8.80
2016,03,29,00,13,8.80
2016,03,29,00,14,8.80
2016,03,29,00,15,8.80
2016,03,29,00,16,8.80
2016,03,29,00,17,8.80
2016,03,29,00,18,8.80
2016,03,29,00,19,8.80
2016,03,29,00,20,8.80
2016,03,29,00,21,8.80
2016,03,29,00,22,8.80
2016,03,29,00,23,8.80
2016,03,29,00,24,8.80
2016,03,29,00,25,8.80
2016,03,29,00,26,8.80
2016,03,29,00,27,8.80
2016,03,29,00,28,8.80
2016,03,29,00,29,8.80
2016,03,29,00,30,8.80
2016,03,29,00,31,8.80
2016,03,29,00,32,8.80
2016,03,29,00,33,8.80
2016,03,29,00,34,8.80
2016,03,29,00,35,8.80
2016,03,29,00,36,8.90
2016,03,29,00,37,8.80
2016,03,29,00,38,8.90
2016,03,29,00,39,8.90
2016,03,29,00,40,8.90
2016,03,29,00,41,8.90
2016,03,29,00,42,8.90
2016,03,29,00,43,8.90
2016,03,29,00,44,8.90
2016,03,29,00,45,8.90
2016,03,29,00,46,8.90
2016,03,29,00,47,8.90
2016,03,29,00,48,8.80
2016,03,29,00,49,8.80
2016,03,29,00,50,8.80
2016,03,29,00,51,8.70
2016,03,29,00,52,8.70
2016,03,29,00,53,8.70
2016,03,29,00,54,8.70
2016,03,29,00,55,8.60
2016,03,29,00,56,8.60
2016,03,29,00,57,8.60
2016,03,29,00,58,8.60
2016,03,29,00,59,8.60
2016,03,29,01,00,8.50
2016,03,29,01,01,8.50
2016,03,29,01,02,8.50
2016,03,29,01,03,8.50
2016,03,29,01,04,8.50
2016,03,29,01,05,8.50
2016,03,29,01,06,8.50
2016,03,29,01,07,8.50
2016,03,29,01,08,8.50
2016,03,29,01,09,8.40
2016,03,29,01,10,8.40
2016,03,29,01,11,8.50
2016,03,29,01,12,8.50
2016,03,29,01,13,8.50
2016,03,29,01,14,8.50
2016,03,29,01,15,8.60
2016,03,29,01,16,8.60
2016,03,29,01,17,8.60
2016,03,29,01,18,8.70
2016,03,29,01,19,8.70
2016,03,29,01,20,8.70
2016,03,29,01,21,8.70
2016,03,29,01,22,8.70
2016,03,29,01,23,8.70
2016,03,29,01,24,8.70
2016,03,29,01,25,8.70
2016,03,29,01,26,8.70
2016,03,29,01,27,8.70
2016,03,29,01,28,8.80
2016,03,29,01,29,8.80
2016,03,29,01,30,8.80
2016,03,29,01,31,8.80
2016,03,29,01,32,8.80
2016,03,29,01,33,8.80
2016,03,29,01,34,8.70
2016,03,29,01,35,8.70
2016,03,29,01,36,8.70
2016,03,29,01,37,8.70
2016,03,29,01,38,8.70
2016,03,29,01,39,8.70
2016,03,29,01,40,8.70
2016,03,29,01,41,8.70
2016,03,29,01,42,8.70
2016,03,29,01,43,8.80
2016,03,29,01,44,8.80
2016,03,29,01,45,8.80
2016,03,29,01,46,8.70
2016,03,29,01,47,8.70
2016,03,29,01,48,8.70
2016,03,29,01,49,8.70
2016,03,29,01,50,8.70
2016,03,29,01,51,8.60
2016,03,29,01,52,8.70
2016,03,29,01,53,8.60
2016,03,29,01,54,8.60
2016,03,29,01,55,8.60
2016,03,29,01,56,8.60
2016,03,29,01,57,8.60
2016,03,29,01,58,8.60
2016,03,29,01,59,8.60
2016,03,29,02,00,8.60
2016,03,29,02,01,8.60
2016,03,29,02,02,8.60
2016,03,29,02,03,8.60
2016,03,29,02,04,8.60
2016,03,29,02,05,8.60
2016,03,29,02,06,8.60
2016,03,29,02,07,8.60
2016,03,29,02,08,8.60
2016,03,29,02,09,8.60
2016,03,29,02,10,8.60
2016,03,29,02,11,8.60
2016,03,29,02,12,8.60
2016,03,29,02,13,8.60
2016,03,29,02,14,8.70
2016,03,29,02,15,8.60
2016,03,29,02,16,8.60
2016,03,29,02,17,8.60
2016,03,29,02,18,8.60
2016,03,29,02,19,8.60
2016,03,29,02,20,8.60
2016,03,29,02,21,8.60
2016,03,29,02,22,8.60
2016,03,29,02,23,8.60
2016,03,29,02,24,8.60
2016,03,29,02,25,8.60
2016,03,29,02,26,8.60
2016,03,29,02,27,8.50
2016,03,29,02,28,8.50
2016,03,29,02,29,8.50
2016,03,29,02,30,8.40
2016,03,29,02,31,8.40
2016,03,29,02,32,8.30
2016,03,29,02,33,8.30
2016,03,29,02,34,8.30
2016,03,29,02,35,8.30
2016,03,29,02,36,8.20
2016,03,29,02,37,8.20
2016,03,29,02,38,8.20
2016,03,29,02,39,8.20
2016,03,29,02,40,8.20
2016,03,29,02,41,8.20
2016,03,29,02,42,8.10
2016,03,29,02,43,8.10
2016,03,29,02,44,8.10
2016,03,29,02,45,8.10
2016,03,29,02,46,8.10
2016,03,29,02,47,8.10
2016,03,29,02,48,8.10
2016,03,29,02,49,8.10
2016,03,29,02,50,8.00
2016,03,29,02,51,8.00
2016,03,29,02,52,8.00
2016,03,29,02,53,8.00
2016,03,29,02,54,8.00
2016,03,29,02,55,7.90
2016,03,29,02,56,7.90
2016,03,29,02,57,7.80
2016,03,29,02,58,7.80
2016,03,29,02,59,7.70
2016,03,29,03,00,7.70
2016,03,29,03,01,7.60
2016,03,29,03,02,7.60
2016,03,29,03,03,7.60
2016,03,29,03,04,7.70
2016,03,29,03,05,7.70
2016,03,29,03,06,7.70
2016,03,29,03,07,7.70
2016,03,29,03,08,7.70
2016,03,29,03,09,7.80
2016,03,29,03,10,7.80
2016,03,29,03,11,7.90
2016,03,29,03,12,7.90
2016,03,29,03,13,8.00
2016,03,29,03,14,8.00
2016,03,29,03,15,8.00
2016,03,29,03,16,8.00
2016,03,29,03,17,8.00
2016,03,29,03,18,8.10
2016,03,29,03,19,8.10
2016,03,29,03,20,8.10
2016,03,29,03,21,8.10
2016,03,29,03,22,8.10
2016,03,29,03,23,8.10
2016,03,29,03,24,8.00
2016,03,29,03,25,8.00
2016,03,29,03,26,7.90
2016,03,29,03,27,7.90
2016,03,29,03,28,7.90
2016,03,29,03,29,7.90
2016,03,29,03,30,7.80
2016,03,29,03,31,7.80
2016,03,29,03,32,7.70
2016,03,29,03,33,7.70
2016,03,29,03,34,7.70
2016,03,29,03,35,7.60
2016,03,29,03,36,7.60
2016,03,29,03,37,7.60
2016,03,29,03,38,7.60
2016,03,29,03,39,7.50
2016,03,29,03,40,7.50
2016,03,29,03,41,7.40
2016,03,29,03,42,7.40
2016,03,29,03,43,7.40
2016,03,29,03,44,7.40
2016,03,29,03,45,7.40
2016,03,29,03,46,7.40
2016,03,29,03,47,7.50
2016,03,29,03,48,7.50
2016,03,29,03,49,7.60
2016,03,29,03,50,7.60
2016,03,29,03,51,7.70
2016,03,29,03,52,7.70
2016,03,29,03,53,7.70
2016,03,29,03,54,7.70
2016,03,29,03,55,7.80
2016,03,29,03,56,7.80
2016,03,29,03,57,7.90
2016,03,29,03,58,7.90
2016,03,29,03,59,7.90
2016,03,29,04,00,7.90
2016,03,29,04,01,7.90
2016,03,29,04,02,7.90
2016,03,29,04,03,7.90
2016,03,29,04,04,7.90
2016,03,29,04,05,7.90
2016,03,29,04,06,7.90
2016,03,29,04,07,7.90
2016,03,29,04,08,7.80
2016,03,29,04,09,7.80
2016,03,29,04,10,7.80
2016,03,29,04,11,7.80
2016,03,29,04,12,7.80
2016,03,29,04,13,7.70
2016,03,29,04,14,7.70
2016,03,29,04,15,7.70
2016,03,29,04,16,7.70
2016,03,29,04,17,7.60
2016,03,29,04,18,7.70
2016,03,29,04,19,7.70
2016,03,29,04,20,7.70
2016,03,29,04,21,7.70
2016,03,29,04,22,7.70
2016,03,29,04,23,7.80
2016,03,29,04,24,7.80
2016,03,29,04,25,7.80
2016,03,29,04,26,7.80
2016,03,29,04,27,7.80
2016,03,29,04,28,7.90
2016,03,29,04,29,7.90
2016,03,29,04,30,7.90
2016,03,29,04,31,8.00
2016,03,29,04,32,8.00
2016,03,29,04,33,8.00
2016,03,29,04,34,8.10
2016,03,29,04,35,8.10
2016,03,29,04,36,8.10
2016,03,29,04,37,8.10
2016,03,29,04,38,8.10
2016,03,29,04,39,8.10
2016,03,29,04,40,8.10
2016,03,29,04,41,8.10
2016,03,29,04,42,8.10
2016,03,29,04,43,8.00
2016,03,29,04,44,8.00
2016,03,29,04,45,8.00
2016,03,29,04,46,8.00
2016,03,29,04,47,8.00
2016,03,29,04,48,8.00
2016,03,29,04,49,7.90
2016,03,29,04,50,7.90
2016,03,29,04,51,7.90
2016,03,29,04,52,7.90
2016,03,29,04,53,7.90
2016,03,29,04,54,7.80
2016,03,29,04,55,7.80
2016,03,29,04,56,7.80
2016,03,29,04,57,7.80
2016,03,29,04,58,7.70
2016,03,29,04,59,7.70
2016,03,29,05,00,7.60
2016,03,29,05,01,7.60
2016,03,29,05,02,7.60
2016,03,29,05,03,7.50
2016,03,29,05,04,7.50
2016,03,29,05,05,7.40
2016,03,29,05,06,7.30
2016,03,29,05,07,7.30
2016,03,29,05,08,7.20
2016,03,29,05,09,7.20
2016,03,29,05,10,7.10
2016,03,29,05,11,7.10
2016,03,29,05,12,7.00
2016,03,29,05,13,6.90
2016,03,29,05,14,6.80
2016,03,29,05,15,6.70
2016,03,29,05,16,6.60
2016,03,29,05,17,6.50
2016,03,29,05,18,6.50
2016,03,29,05,19,6.40
2016,03,29,05,20,6.40
2016,03,29,05,21,6.30
2016,03,29,05,22,6.30
2016,03,29,05,23,6.30
2016,03,29,05,24,6.30
2016,03,29,05,25,6.30
2016,03,29,05,26,6.30
2016,03,29,05,27,6.30
2016,03,29,05,28,6.20
2016,03,29,05,29,6.20
2016,03,29,05,30,6.20
2016,03,29,05,31,6.20
2016,03,29,05,32,6.10
2016,03,29,05,33,6.00
2016,03,29,05,34,5.90
2016,03,29,05,35,5.80
2016,03,29,05,36,5.70
2016,03,29,05,37,5.60
2016,03,29,05,38,5.60
2016,03,29,05,39,5.50
2016,03,29,05,40,5.50
2016,03,29,05,41,5.40
2016,03,29,05,42,5.40
2016,03,29,05,43,5.30
2016,03,29,05,44,5.20
2016,03,29,05,45,5.10
2016,03,29,05,46,5.10
2016,03,29,05,47,5.10
2016,03,29,05,48,5.20
2016,03,29,05,49,5.30
2016,03,29,05,50,5.50
2016,03,29,05,51,5.60
2016,03,29,05,52,5.70
2016,03,29,05,53,5.80
2016,03,29,05,54,5.90
2016,03,29,05,55,5.90
2016,03,29,05,56,5.90
2016,03,29,05,57,6.00
2016,03,29,05,58,6.00
2016,03,29,05,59,6.10
2016,03,29,06,00,6.10
2016,03,29,06,01,6.00
2016,03,29,06,02,6.00
2016,03,29,06,03,5.90
2016,03,29,06,04,5.80
2016,03,29,06,05,5.80
2016,03,29,06,06,5.70
2016,03,29,06,07,5.70
2016,03,29,06,08,5.60
2016,03,29,06,09,5.50
2016,03,29,06,10,5.40
2016,03,29,06,11,5.30
2016,03,29,06,12,5.20
2016,03,29,06,13,5.10
2016,03,29,06,14,5.00
2016,03,29,06,15,4.90
2016,03,29,06,16,4.90
2016,03,29,06,17,4.90
2016,03,29,06,18,4.90
2016,03,29,06,19,4.90
2016,03,29,06,20,4.90
2016,03,29,06,21,5.00
2016,03,29,06,22,5.00
2016,03,29,06,23,5.00
2016,03,29,06,24,5.00
2016,03,29,06,25,5.00
2016,03,29,06,26,4.90
2016,03,29,06,27,4.90
2016,03,29,06,28,4.80
2016,03,29,06,29,4.70
2016,03,29,06,30,4.70
2016,03,29,06,31,4.70
2016,03,29,06,32,4.70
2016,03,29,06,33,4.70
2016,03,29,06,34,4.80
2016,03,29,06,35,4.80
2016,03,29,06,36,4.80
2016,03,29,06,37,4.90
2016,03,29,06,38,4.90
2016,03,29,06,39,4.90
2016,03,29,06,40,4.90
2016,03,29,06,41,4.90
2016,03,29,06,42,4.80
2016,03,29,06,43,4.80
2016,03,29,06,44,4.70
2016,03,29,06,45,4.60
2016,03,29,06,46,4.70
2016,03,29,06,47,4.80
2016,03,29,06,48,5.00
2016,03,29,06,49,5.10
2016,03,29,06,50,5.20
2016,03,29,06,51,5.30
2016,03,29,06,52,5.40
2016,03,29,06,53,5.40
2016,03,29,06,54,5.40
2016,03,29,06,55,5.50
2016,03,29,06,56,5.60
2016,03,29,06,57,5.80
2016,03,29,06,58,5.80
2016,03,29,06,59,5.90
2016,03,29,07,00,5.90
2016,03,29,07,01,6.00
2016,03,29,07,02,6.00
2016,03,29,07,03,6.10
2016,03,29,07,04,6.10
2016,03,29,07,05,6.10
2016,03,29,07,06,6.10
2016,03,29,07,07,6.10
2016,03,29,07,08,6.10
2016,03,29,07,09,6.10
2016,03,29,07,10,6.20
2016,03,29,07,11,6.20
2016,03,29,07,12,6.30
2016,03,29,07,13,6.30
2016,03,29,07,14,6.40
2016,03,29,07,15,6.50
2016,03,29,07,16,6.50
2016,03,29,07,17,6.50
2016,03,29,07,18,6.50
2016,03,29,07,19,6.50
2016,03,29,07,20,6.60
2016,03,29,07,21,6.60
2016,03,29,07,22,6.60
2016,03,29,07,23,6.70
2016,03,29,07,24,6.70
2016,03,29,07,25,6.70
2016,03,29,07,26,6.70
2016,03,29,07,27,6.70
2016,03,29,07,28,6.70
2016,03,29,07,29,6.70
2016,03,29,07,30,6.80
2016,03,29,07,31,6.80
2016,03,29,07,32,6.80
2016,03,29,07,33,6.80
2016,03,29,07,34,6.90
2016,03,29,07,35,6.90
2016,03,29,07,36,6.90
2016,03,29,07,37,6.90
2016,03,29,07,38,6.90
2016,03,29,07,39,6.90
2016,03,29,07,40,6.90
2016,03,29,07,41,6.90
2016,03,29,07,42,6.90
2016,03,29,07,43,6.90
2016,03,29,07,44,6.90
2016,03,29,07,45,7.00
2016,03,29,07,46,7.00
2016,03,29,07,47,7.10
2016,03,29,07,48,7.10
2016,03,29,07,49,7.20
2016,03,29,07,50,7.20
2016,03,29,07,51,7.20
2016,03,29,07,52,7.20
2016,03,29,07,53,7.30
2016,03,29,07,54,7.30
2016,03,29,07,55,7.40
2016,03,29,07,56,7.40
2016,03,29,07,57,7.40
2016,03,29,07,58,7.40
2016,03,29,07,59,7.40
2016,03,29,08,00,7.50
2016,03,29,08,01,7.50
2016,03,29,08,02,7.50
2016,03,29,08,03,7.60
2016,03,29,08,04,7.60
2016,03,29,08,05,7.70
2016,03,29,08,06,7.70
2016,03,29,08,07,7.80
2016,03,29,08,08,7.80
2016,03,29,08,09,7.80
2016,03,29,08,10,7.90
2016,03,29,08,11,7.90
2016,03,29,08,12,8.00
2016,03,29,08,13,8.00
2016,03,29,08,14,8.10
2016,03,29,08,15,8.20
2016,03,29,08,16,8.20
2016,03,29,08,17,8.30
2016,03,29,08,18,8.30
2016,03,29,08,19,8.30
2016,03,29,08,20,8.30
2016,03,29,08,21,8.40
2016,03,29,08,22,8.40
2016,03,29,08,23,8.40
2016,03,29,08,24,8.40
2016,03,29,08,25,8.50
2016,03,29,08,26,8.50
2016,03,29,08,27,8.50
2016,03,29,08,28,8.60
2016,03,29,08,29,8.60
2016,03,29,08,30,8.60
2016,03,29,08,31,8.60
2016,03,29,08,32,8.70
2016,03,29,08,33,8.70
2016,03,29,08,34,8.70
2016,03,29,08,35,8.70
2016,03,29,08,36,8.70
2016,03,29,08,37,8.70
2016,03,29,08,38,8.70
2016,03,29,08,39,8.70
2016,03,29,08,40,8.70
2016,03,29,08,41,8.70
2016,03,29,08,42,8.80
2016,03,29,08,43,8.80
2016,03,29,08,44,8.80
2016,03,29,08,45,8.80
2016,03,29,08,46,8.80
2016,03,29,08,47,8.80
2016,03,29,08,48,8.90
2016,03,29,08,49,8.90
2016,03,29,08,50,8.90
2016,03,29,08,51,8.90
2016,03,29,08,52,8.90
2016,03,29,08,53,8.90
2016,03,29,08,54,9.00
2016,03,29,08,55,9.00
2016,03,29,08,56,9.10
2016,03,29,08,57,9.10
2016,03,29,08,58,9.20
2016,03,29,08,59,9.20
2016,03,29,09,00,9.20
2016,03,29,09,01,9.20
2016,03,29,09,02,9.30
2016,03,29,09,03,9.30
2016,03,29,09,04,9.40
2016,03,29,09,05,9.40
2016,03,29,09,06,9.40
2016,03,29,09,07,9.50
2016,03,29,09,08,9.40
2016,03,29,09,09,9.50
2016,03,29,09,10,9.50
2016,03,29,09,11,9.50
2016,03,29,09,12,9.50
2016,03,29,09,13,9.50
2016,03,29,09,14,9.40
2016,03,29,09,15,9.50
2016,03,29,09,16,9.50
2016,03,29,09,17,9.60
2016,03,29,09,18,9.60
2016,03,29,09,19,9.60
2016,03,29,09,20,9.60
2016,03,29,09,21,9.60
2016,03,29,09,22,9.60
2016,03,29,09,23,9.70
2016,03,29,09,24,9.70
2016,03,29,09,25,9.70
2016,03,29,09,26,9.80
2016,03,29,09,27,9.80
2016,03,29,09,28,9.80
2016,03,29,09,29,9.80
2016,03,29,09,30,9.90
2016,03,29,09,31,9.90
2016,03,29,09,32,10.00
2016,03,29,09,33,10.00
2016,03,29,09,34,10.00
2016,03,29,09,35,10.10
2016,03,29,09,36,10.10
2016,03,29,09,37,10.10
2016,03,29,09,38,10.10
2016,03,29,09,39,10.20
2016,03,29,09,40,10.20
2016,03,29,09,41,10.30
2016,03,29,09,42,10.30
2016,03,29,09,43,10.40
2016,03,29,09,44,10.40
2016,03,29,09,45,10.40
2016,03,29,09,46,10.40
2016,03,29,09,47,10.40
2016,03,29,09,48,10.40
2016,03,29,09,49,10.50
2016,03,29,09,50,10.50
2016,03,29,09,51,10.60
2016,03,29,09,52,10.60
2016,03,29,09,53,10.60
2016,03,29,09,54,10.60
2016,03,29,09,55,10.60
2016,03,29,09,56,10.60
2016,03,29,09,57,10.70
2016,03,29,09,58,10.70
2016,03,29,09,59,10.70
2016,03,29,10,00,10.70
2016,03,29,10,01,10.70
2016,03,29,10,02,10.70
2016,03,29,10,03,10.60
2016,03,29,10,04,10.60
2016,03,29,10,05,10.60
2016,03,29,10,06,10.60
2016,03,29,10,07,10.60
2016,03,29,10,08,10.70
2016,03,29,10,09,10.80
2016,03,29,10,10,10.80
2016,03,29,10,11,10.80
2016,03,29,10,12,10.80
2016,03,29,10,13,10.80
2016,03,29,10,14,10.90
2016,03,29,10,15,10.90
2016,03,29,10,16,10.90
2016,03,29,10,17,11.00
2016,03,29,10,18,11.10
2016,03,29,10,19,11.10
2016,03,29,10,20,11.20
2016,03,29,10,21,11.20
2016,03,29,10,22,11.30
2016,03,29,10,23,11.30
2016,03,29,10,24,11.30
2016,03,29,10,25,11.30
2016,03,29,10,26,11.30
2016,03,29,10,27,11.40
2016,03,29,10,28,11.40
2016,03,29,10,29,11.40
2016,03,29,10,30,11.50
2016,03,29,10,31,11.50
2016,03,29,10,32,11.60
2016,03,29,10,33,11.60
2016,03,29,10,34,11.60
2016,03,29,10,35,11.70
2016,03,29,10,36,11.60
2016,03,29,10,37,11.60
2016,03,29,10,38,11.60
2016,03,29,10,39,11.60
2016,03,29,10,40,11.60
2016,03,29,10,41,11.60
2016,03,29,10,42,11.60
2016,03,29,10,43,11.60
2016,03,29,10,44,11.60
2016,03,29,10,45,11.60
2016,03,29,10,46,11.60
2016,03,29,10,47,11.60
2016,03,29,10,48,11.60
2016,03,29,10,49,11.60
2016,03,29,10,50,11.60
2016,03,29,10,51,11.60
2016,03,29,10,52,11.60
2016,03,29,10,53,11.60
2016,03,29,10,54,11.70
2016,03,29,10,55,11.70
2016,03,29,10,56,11.70
2016,03,29,10,57,11.70
2016,03,29,10,58,11.70
2016,03,29,10,59,11.70
2016,03,29,11,00,11.70
2016,03,29,11,01,11.70
2016,03,29,11,02,11.80
2016,03,29,11,03,11.80
2016,03,29,11,04,11.90
2016,03,29,11,05,11.90
2016,03,29,11,06,11.90
2016,03,29,11,07,11.90
2016,03,29,11,08,11.80
2016,03,29,11,09,11.70
2016,03,29,11,10,11.60
2016,03,29,11,11,11.50
2016,03,29,11,12,11.40
2016,03,29,11,13,11.40
2016,03,29,11,14,11.40
2016,03,29,11,15,11.40
2016,03,29,11,16,11.30
2016,03,29,11,17,11.30
2016,03,29,11,18,11.20
2016,03,29,11,19,11.20
2016,03,29,11,20,11.20
2016,03,29,11,21,11.30
2016,03,29,11,22,11.30
2016,03,29,11,23,11.30
2016,03,29,11,24,11.40
2016,03,29,11,25,11.40
2016,03,29,11,26,11.50
2016,03,29,11,27,11.40
2016,03,29,11,28,11.40
2016,03,29,11,29,11.40
2016,03,29,11,30,11.40
2016,03,29,11,31,11.40
2016,03,29,11,32,11.40
2016,03,29,11,33,11.40
2016,03,29,11,34,11.40
2016,03,29,11,35,11.40
2016,03,29,11,36,11.50
2016,03,29,11,37,11.50
2016,03,29,11,38,11.50
2016,03,29,11,39,11.50
2016,03,29,11,40,11.60
2016,03,29,11,41,11.70
2016,03,29,11,42,11.80
2016,03,29,11,43,11.90
2016,03,29,11,44,12.10
2016,03,29,11,45,12.20
2016,03,29,11,46,12.20
2016,03,29,11,47,12.20
2016,03,29,11,48,12.30
2016,03,29,11,49,12.40
2016,03,29,11,50,12.40
2016,03,29,11,51,12.40
2016,03,29,11,52,12.40
2016,03,29,11,53,12.40
2016,03,29,11,54,12.30
2016,03,29,11,55,12.30
2016,03,29,11,56,12.30
2016,03,29,11,57,12.30
2016,03,29,11,58,12.30
2016,03,29,11,59,12.30
2016,03,29,12,00,12.20
2016,03,29,12,01,12.20
2016,03,29,12,02,12.20
2016,03,29,12,03,12.20
2016,03,29,12,04,12.20
2016,03,29,12,05,12.20
2016,03,29,12,06,12.20
2016,03,29,12,07,12.30
2016,03,29,12,08,12.30
2016,03,29,12,09,12.30
2016,03,29,12,10,12.40
2016,03,29,12,11,12.50
2016,03,29,12,12,12.60
2016,03,29,12,13,12.70
2016,03,29,12,14,12.80
2016,03,29,12,15,12.80
2016,03,29,12,16,12.90
2016,03,29,12,17,12.90
2016,03,29,12,18,12.90
2016,03,29,12,19,12.90
2016,03,29,12,20,13.00
2016,03,29,12,21,13.00
2016,03,29,12,22,13.00
2016,03,29,12,23,12.90
2016,03,29,12,24,12.80
2016,03,29,12,25,12.80
2016,03,29,12,26,12.80
2016,03,29,12,27,12.80
2016,03,29,12,28,12.80
2016,03,29,12,29,12.80
2016,03,29,12,30,12.80
2016,03,29,12,31,12.80
2016,03,29,12,32,12.70
2016,03,29,12,33,12.60
2016,03,29,12,34,12.50
2016,03,29,12,35,12.50
2016,03,29,12,36,12.50
2016,03,29,12,37,12.50
2016,03,29,12,38,12.50
2016,03,29,12,39,12.60
2016,03,29,12,40,12.60
2016,03,29,12,41,12.60
2016,03,29,12,42,12.50
2016,03,29,12,43,12.50
2016,03,29,12,44,12.40
2016,03,29,12,45,12.40
2016,03,29,12,46,12.40
2016,03,29,12,47,12.40
2016,03,29,12,48,12.40
2016,03,29,12,49,12.50
2016,03,29,12,50,12.50
2016,03,29,12,51,12.60
2016,03,29,12,52,12.60
2016,03,29,12,53,12.60
2016,03,29,12,54,12.60
2016,03,29,12,55,12.50
2016,03,29,12,56,12.50
2016,03,29,12,57,12.50
2016,03,29,12,58,12.50
2016,03,29,12,59,12.50
2016,03,29,13,00,12.60
2016,03,29,13,01,12.60
2016,03,29,13,02,12.60
2016,03,29,13,03,12.70
2016,03,29,13,04,12.70
2016,03,29,13,05,12.80
2016,03,29,13,06,12.80
2016,03,29,13,07,12.90
2016,03,29,13,08,12.90
2016,03,29,13,09,12.90
2016,03,29,13,10,13.00
2016,03,29,13,11,13.00
2016,03,29,13,12,13.00
2016,03,29,13,13,13.00
2016,03,29,13,14,13.10
2016,03,29,13,15,13.10
2016,03,29,13,16,13.10
2016,03,29,13,17,13.20
2016,03,29,13,18,13.10
2016,03,29,13,19,13.10
2016,03,29,13,20,13.10
2016,03,29,13,21,13.20
2016,03,29,13,22,13.20
2016,03,29,13,23,13.30
2016,03,29,13,24,13.40
2016,03,29,13,25,13.50
2016,03,29,13,26,13.60
2016,03,29,13,27,13.60
2016,03,29,13,28,13.70
2016,03,29,13,29,13.70
2016,03,29,13,30,13.80
2016,03,29,13,31,13.90
2016,03,29,13,32,14.00
2016,03,29,13,33,14.00
2016,03,29,13,34,14.10
2016,03,29,13,35,14.00
2016,03,29,13,36,14.00
2016,03,29,13,37,13.90
2016,03,29,13,38,13.80
2016,03,29,13,39,13.80
2016,03,29,13,40,13.80
2016,03,29,13,41,13.80
2016,03,29,13,42,13.90
2016,03,29,13,43,13.90
2016,03,29,13,44,13.90
2016,03,29,13,45,13.80
2016,03,29,13,46,13.80
2016,03,29,13,47,13.70
2016,03,29,13,48,13.70
2016,03,29,13,49,13.70
2016,03,29,13,50,13.70
2016,03,29,13,51,13.70
2016,03,29,13,52,13.70
2016,03,29,13,53,13.80
2016,03,29,13,54,13.80
2016,03,29,13,55,13.90
2016,03,29,13,56,14.00
2016,03,29,13,57,14.00
2016,03,29,13,58,14.00
2016,03,29,13,59,14.00
2016,03,29,14,00,14.00
2016,03,29,14,01,13.90
2016,03,29,14,02,13.90
2016,03,29,14,03,14.00
2016,03,29,14,04,14.00
2016,03,29,14,05,14.00
2016,03,29,14,06,14.00
2016,03,29,14,07,14.00
2016,03,29,14,08,14.00
2016,03,29,14,09,13.90
2016,03,29,14,10,13.90
2016,03,29,14,11,13.90
2016,03,29,14,12,14.00
2016,03,29,14,13,14.00
2016,03,29,14,14,14.10
2016,03,29,14,15,14.10
2016,03,29,14,16,14.20
2016,03,29,14,17,14.30
2016,03,29,14,18,14.30
2016,03,29,14,19,14.30
2016,03,29,14,20,14.30
2016,03,29,14,21,14.30
2016,03,29,14,22,14.20
2016,03,29,14,23,14.20
2016,03,29,14,24,14.20
2016,03,29,14,25,14.20
2016,03,29,14,26,14.10
2016,03,29,14,27,14.10
2016,03,29,14,28,14.00
2016,03,29,14,29,14.00
2016,03,29,14,30,13.90
2016,03,29,14,31,13.90
2016,03,29,14,32,14.00
2016,03,29,14,33,14.10
2016,03,29,14,34,14.20
2016,03,29,14,35,14.30
2016,03,29,14,36,14.40
2016,03,29,14,37,14.50
2016,03,29,14,38,14.70
2016,03,29,14,39,14.70
2016,03,29,14,40,14.80
2016,03,29,14,41,14.90
2016,03,29,14,42,15.00
2016,03,29,14,43,15.10
2016,03,29,14,44,15.20
2016,03,29,14,45,15.20
2016,03,29,14,46,15.30
2016,03,29,14,47,15.30
2016,03,29,14,48,15.30
2016,03,29,14,49,15.30
2016,03,29,14,50,15.20
2016,03,29,14,51,15.20
2016,03,29,14,52,15.30
2016,03,29,14,53,15.30
2016,03,29,14,54,15.30
2016,03,29,14,55,15.30
2016,03,29,14,56,15.40
2016,03,29,14,57,15.40
2016,03,29,14,58,15.30
2016,03,29,14,59,15.30
2016,03,29,15,00,15.30
2016,03,29,15,01,15.40
2016,03,29,15,02,15.50
2016,03,29,15,03,15.60
2016,03,29,15,04,15.60
2016,03,29,15,05,15.60
2016,03,29,15,06,15.60
2016,03,29,15,07,15.60
2016,03,29,15,08,15.60
2016,03,29,15,09,15.70
2016,03,29,15,10,15.70
2016,03,29,15,11,15.70
2016,03,29,15,12,15.70
2016,03,29,15,13,15.80
2016,03,29,15,14,15.90
2016,03,29,15,15,16.00
2016,03,29,15,16,16.00
2016,03,29,15,17,16.10
2016,03,29,15,18,16.20
2016,03,29,15,19,16.30
2016,03,29,15,20,16.40
2016,03,29,15,21,16.30
2016,03,29,15,22,16.30
2016,03,29,15,23,16.30
2016,03,29,15,24,16.30
2016,03,29,15,25,16.20
2016,03,29,15,26,16.20
2016,03,29,15,27,16.20
2016,03,29,15,28,16.20
2016,03,29,15,29,16.20
2016,03,29,15,30,16.30
2016,03,29,15,31,16.40
2016,03,29,15,32,16.50
2016,03,29,15,33,16.50
2016,03,29,15,34,16.50
2016,03,29,15,35,16.40
2016,03,29,15,36,16.30
2016,03,29,15,37,16.20
2016,03,29,15,38,16.20
2016,03,29,15,39,16.20
2016,03,29,15,40,16.20
2016,03,29,15,41,16.30
2016,03,29,15,42,16.40
2016,03,29,15,43,16.40
2016,03,29,15,44,16.40
2016,03,29,15,45,16.40
2016,03,29,15,46,16.40
2016,03,29,15,47,16.40
2016,03,29,15,48,16.30
2016,03,29,15,49,16.30
2016,03,29,15,50,16.30
2016,03,29,15,51,16.30
2016,03,29,15,52,16.40
2016,03,29,15,53,16.30
2016,03,29,15,54,16.20
2016,03,29,15,55,16.20
2016,03,29,15,56,16.20
2016,03,29,15,57,16.10
2016,03,29,15,58,16.00
2016,03,29,15,59,15.90
2016,03,29,16,00,15.90
2016,03,29,16,01,15.90
2016,03,29,16,02,15.90
2016,03,29,16,03,15.90
2016,03,29,16,04,15.90
2016,03,29,16,05,15.90
2016,03,29,16,06,16.00
2016,03,29,16,07,16.10
2016,03,29,16,08,16.10
2016,03,29,16,09,16.10
2016,03,29,16,10,16.10
2016,03,29,16,11,16.10
2016,03,29,16,12,16.10
2016,03,29,16,13,16.10
2016,03,29,16,14,16.00
2016,03,29,16,15,15.90
2016,03,29,16,16,15.90
2016,03,29,16,17,15.90
2016,03,29,16,18,15.90
2016,03,29,16,19,15.90
2016,03,29,16,20,15.90
2016,03,29,16,21,15.90
2016,03,29,16,22,15.90
2016,03,29,16,23,15.90
2016,03,29,16,24,15.90
2016,03,29,16,25,15.90
2016,03,29,16,26,16.00
2016,03,29,16,27,16.10
2016,03,29,16,28,16.10
2016,03,29,16,29,16.20
2016,03,29,16,30,16.20
2016,03,29,16,31,16.20
2016,03,29,16,32,16.20
2016,03,29,16,33,16.20
2016,03,29,16,34,16.20
2016,03,29,16,35,16.10
2016,03,29,16,36,16.10
2016,03,29,16,37,16.00
2016,03,29,16,38,16.00
2016,03,29,16,39,15.90
2016,03,29,16,40,15.90
2016,03,29,16,41,15.90
2016,03,29,16,42,15.90
2016,03,29,16,43,15.90
2016,03,29,16,44,15.90
2016,03,29,16,45,15.80
2016,03,29,16,46,15.80
2016,03,29,16,47,15.60
2016,03,29,16,48,15.60
2016,03,29,16,49,15.50
2016,03,29,16,50,15.40
2016,03,29,16,51,15.40
2016,03,29,16,52,15.40
2016,03,29,16,53,15.40
2016,03,29,16,54,15.30
2016,03,29,16,55,15.30
2016,03,29,16,56,15.30
2016,03,29,16,57,15.30
2016,03,29,16,58,15.30
2016,03,29,16,59,15.20
2016,03,29,17,00,15.20
2016,03,29,17,01,15.20
2016,03,29,17,02,15.20
2016,03,29,17,03,15.20
2016,03,29,17,04,15.20
2016,03,29,17,05,15.20
2016,03,29,17,06,15.20
2016,03,29,17,07,15.20
2016,03,29,17,08,15.20
2016,03,29,17,09,15.20
2016,03,29,17,10,15.20
2016,03,29,17,11,15.30
2016,03,29,17,12,15.40
2016,03,29,17,13,15.50
2016,03,29,17,14,15.60
2016,03,29,17,15,15.60
2016,03,29,17,16,15.70
2016,03,29,17,17,15.70
2016,03,29,17,18,15.80
2016,03,29,17,19,15.80
2016,03,29,17,20,15.90
2016,03,29,17,21,15.90
2016,03,29,17,22,15.90
2016,03,29,17,23,15.90
2016,03,29,17,24,15.90
2016,03,29,17,25,15.90
2016,03,29,17,26,15.80
2016,03,29,17,27,15.80
2016,03,29,17,28,15.80
2016,03,29,17,29,15.80
2016,03,29,17,30,15.80
2016,03,29,17,31,15.80
2016,03,29,17,32,15.80
2016,03,29,17,33,15.80
2016,03,29,17,34,15.90
2016,03,29,17,35,16.00
2016,03,29,17,36,16.10
2016,03,29,17,37,16.10
2016,03,29,17,38,16.20
2016,03,29,17,39,16.20
2016,03,29,17,40,16.20
2016,03,29,17,41,16.20
2016,03,29,17,42,16.20
2016,03,29,17,43,16.20
2016,03,29,17,44,16.20